Location: Newark
(45.4422°N, 16.2769°E)
Time: 15:25:30
(UTC+00:00)

Vanguard 2 - Pass Details

Date: 12 December 2019
Orbit: 553 x 2938 km, 32.9° (Epoch: 25 January)

Event Time Altitude Azimuth Distance (km) Brightness Sun altitude
Rises 02:07:40 0° 255° (WSW) 6,199 - -44.0°
Reaches altitude 10° 02:11:35 10° 251° (WSW) 5,399 - -43.4°
Exits shadow 02:25:22 51° 203° (SSW) 3,446 10.4 -41.0°
Maximum altitude 02:27:49 54° 181° (S) 3,379 10.5 -40.6°
Drops below altitude 10° 02:43:43 10° 111° (ESE) 5,293 12.4 -37.8°
Sets 02:47:30 0° 107° (ESE) 6,074 12.9 -37.1°
